Location: Arborea
(39.7744°N, 8.5819°E)
Time: 00:31:27
(UTC+00:00)

Cosmos 1000 Rocket - Pass Details

Date: 09 October 2023
Orbit: 952 x 993 km, 82.9° (Epoch: 03 December)

Event Time Altitude Azimuth Distance (km) Brightness Sun altitude
Exits shadow 19:16:45 38° 33° (NNE) 1,479 5.2 -27.6°
Drops below altitude 10° 19:20:39 10° 15° (NNE) 2,762 6.9 -28.4°
Sets 19:23:13 0° 12° (NNE) 3,712 7.6 -28.8°
